Regional Weather Roundup
Issued by NWS

Home | Current Version | Previous Version | Text Only | Print | Product List | Glossary On
Versions: 1 2 3 4 5 6 7 8 9 10 11 12 13 14 15 16 17 18 19 20 21 22 23 24 25 26 27 28 29 30 31 32 33 34 35 36 37 38 39 40 41 42 43 44 45 46 47 48 49 50
000
ASUS44 KFWD 200803
RWRTX
NORTH TEXAS HOURLY WEATHER ROUNDUP
NATIONAL WEATHER SERVICE FORT WORTH TX
300 AM CDT MON OCT 20 2014

NOTE: "FAIR" INDICATES FEW OR NO CLOUDS BELOW 12,000 FEET WITH NO
SIGNIFICANT WEATHER AND/OR OBSTRUCTIONS TO VISIBILITY.

TXZ118-119-200900-
DALLAS/FORT WORTH METROPLEX

CITY           SKY/WX    TMP DP  RH WIND       PRES   REMARKS
DFW AIRPORT    PTCLDY    61  53  75 SE3       30.04S
DALLAS LOVE    PTCLDY    63  52  67 SE6       30.05R
FTW MEACHAM    CLEAR     62  56  80 SE6       30.04S
DAL-EXECUTIVE  CLEAR     59  54  83 S5        30.04S
FTW-ALLIANCE   PTCLDY    60  56  86 CALM      30.04S
FTW-NAS-JRB    CLEAR     67  54  63 SE6       30.09R
FTW-SPINKS     CLEAR     61  56  83 S5        30.06S
ARLINGTON      CLEAR     59  54  83 CALM      30.04F
GRAND PRAIRIE  CLEAR     63  57  79 S3        30.06S
ADDISON        CLEAR     63  54  72 SE8       30.07S
MESQUITE       CLEAR     57  51  81 SE3       30.05S
LANCASTER      CLEAR     57  52  84 CALM      30.06S
$$

TXZ091>094-102>105-117-120-121-131>134-200900-
NORTH CENTRAL TEXAS

CITY           SKY/WX    TMP DP  RH WIND       PRES   REMARKS
SHRMAN/DENISON CLEAR     61  53  75 SE7       30.06S
GAINESVILLE    CLEAR     57  53  84 MISG      30.07S
BOWIE          CLEAR     57  56  96 CALM      30.06R
BRIDGEPORT     CLEAR     56  56 100 CALM      30.07S
DECATUR        CLEAR     61  55  81 CALM      30.06R
DENTON         CLEAR     59  54  83 SE5       30.04S
MCKINNEY       CLEAR     56  52  86 CALM      30.05S
GREENVILLE     CLEAR     52  50  93 CALM      30.06S
ROCKWALL       CLEAR     58  52  81 SE3       30.04S
TERRELL        CLEAR     59  52  77 SE3       30.05F
WAXAHACHIE     CLEAR     60  56  87 CALM      30.06S
CLEBURNE       CLEAR     61  59  94 CALM      30.06S
GRANBURY       CLEAR     65  58  77 SE3       30.06S
$$

TXZ083>090-098>101-113>116-127>130-139>142-154-155-200900-
WESTERN NORTH TEXAS

CITY           SKY/WX    TMP DP  RH WIND       PRES   REMARKS
WICHITA FALLS  CLEAR     60  56  86 S8        30.04S
WF-KICKAPOO    CLEAR     60  56  85 S6        30.05F
VERNON         CLEAR     63  57  82 CALM      30.05S
ABILENE        PTCLDY    65  59  81 S13       30.06S
ABILENE-DYESS  PTCLDY    64  60  85 S10       30.04F
BRECKENRIDGE   PTCLDY    64  60  86 CALM      30.05S
MINERAL WELLS  CLEAR     61  56  83 SE7       30.04S
STEPHENVILLE   CLEAR     61  57  88 CALM      30.09R
COMANCHE       CLEAR     61  61 100 S3        30.06S
COLEMAN        PTCLDY    62  60  94 S3        30.07S
BRADY          CLEAR     61  61 100 SE3       30.06S
$$

TXZ143>147-156>162-174-175-200900-
CENTRAL TEXAS

CITY           SKY/WX    TMP DP  RH WIND       PRES   REMARKS
WACO           CLEAR     59  57  93 CALM      30.05R
WACO-MCGREGOR  CLEAR     61  54  77 CALM      30.06R
HILLSBORO      CLEAR     63  56  76 SE7       30.04S
CORSICANA      CLEAR     62  55  77 SE6       30.06S
MEXIA          CLEAR     59  56  89 CALM      30.04S
HEARNE         CLEAR     61  58  88 CALM      30.04S
CAMERON        CLEAR     62  59  91 CALM      30.04F
TEMPLE         CLEAR     63  54  72 E5        30.03F
KILLEEN        CLEAR     63  59  88 SE5       30.04F
KILLEEN-SKYLRK CLEAR     64  55  72 SE6       30.04S
FORT HOOD      CLEAR     64  60  87 CALM      30.04F
GATESVILLE     CLEAR     59  57  94 MISG      30.08R
HAMILTON       CLEAR     61  61 100 SE3       30.07S
LAMPASAS       CLEAR     61  59  94 CALM      30.04S
$$

TXZ095>097-106>112-122>126-135>138-148>153-164>167-200900-
EAST TEXAS

CITY           SKY/WX    TMP DP  RH WIND       PRES   REMARKS
PARIS          CLEAR     52  45  76 E8        30.07S
SULPHUR SPRNGS CLEAR     53  51  95 CALM      30.08S
MOUNT PLEASANT CLEAR     49  49  99 CALM      30.07F
MINEOLA        CLEAR     52  52 100 CALM      30.07S
TYLER          CLEAR     56  52  86 CALM      30.05S
LONGVIEW       CLEAR     53  51  93 CALM      30.06R
MARSHALL       CLEAR     53  51  92 CALM      30.08S
ATHENS         CLEAR     54  52  94 CALM      30.04F
PALESTINE      CLEAR     60  55  82 E3        30.06S
JACKSONVILLE   CLEAR     60  51  73 CALM      30.07S
HENDERSON      CLEAR     52  51  99 CALM      30.07S
NACOGDOCHES    CLEAR     50  48  93 CALM      30.06S
LUFKIN         CLEAR     58  53  84 E5        30.04F
$$

SUPPLEMENTAL OBSERVATIONS (CENTRAL)

CITY           SKY/WX    TMP DP  RH WIND       PRES   REMARKS
$$

SUPPLEMENTAL OBSERVATIONS (WEST)

CITY           SKY/WX    TMP DP  RH WIND       PRES   REMARKS
$$

SUPPLEMENTAL OBSERVATIONS (EAST)

CITY           SKY/WX    TMP DP  RH WIND       PRES   REMARKS
$$

SUPPLEMENTAL OBSERVATIONS ARE A COLLECTION OF AUTOMATED INSTRUMENTS
THAT ARE MAINTAINED BY A VARIETY OF FEDERAL AND STATE AGENCIES.
CERTAIN ELEMENTS...SUCH AS HUMIDITY VALUES AND SUSTAINED WIND
SPEEDS...MAY BE APPROXIMATED.




USA.gov is the U.S. government's official web portal to all federal, state and local government web resources and services.